Location: Artiguedieu
(43.5000°N, 0.5454°E)
Time: 02:09:42
(UTC+00:00)

Transit 2A Rocket - Pass Details

Date: 02 August 2021
Orbit: 586 x 916 km, 66.7° (Epoch: 16 September)

Event Time Altitude Azimuth Distance (km) Brightness Sun altitude
Rises 23:29:00 0° 319° (NW) 3,322 9.1 -28.5°
Reaches altitude 10° 23:31:36 10° 309° (NW) 2,437 8.1 -28.5°
Enters shadow 23:35:46 30° 263° (W) 1,516 6.5 -28.7°
Maximum altitude 23:36:29 30° 249° (WSW) 1,496 - -28.7°
Drops below altitude 10° 23:41:36 10° 190° (S) 2,564 - -28.8°
Sets 23:44:25 0° 181° (S) 3,522 - -28.8°
